• In Kazakhstan
  • List of Countries
  • For 7 days
  • Water Temperature
  • Weather Map
  • News
  • Weather Widgets
  • user-avatar
    Login

    Hourly Weather Telavi

    Today, 23 September, Monday

    Time Temperature Precipitation Wind Pressure Humidity
    00:00 +10°C° 0 mm 2 mps 711 mmHg 48%
    01:00 +11°C° 0 mm 1 mps 711 mmHg 50%
    02:00 +10°C° 0 mm 1 mps 711 mmHg 52%
    03:00 +10°C° 0 mm 1 mps 711 mmHg 54%
    04:00 +10°C° 0 mm 1 mps 710 mmHg 54%
    05:00 +9°C° 0 mm 1 mps 710 mmHg 55%
    06:00 +9°C° 0 mm 1 mps 710 mmHg 56%
    07:00 +11°C° 0 mm 1 mps 710 mmHg 50%
    08:00 +14°C° 0 mm 1 mps 710 mmHg 44%
    09:00 +16°C° 0 mm 1 mps 710 mmHg 36%
    10:00 +18°C° 0 mm 1 mps 710 mmHg 34%
    11:00 +19°C° 0 mm 2 mps 709 mmHg 31%
    12:00 +20°C° 0 mm 2 mps 709 mmHg 29%
    13:00 +21°C° 0 mm 2 mps 709 mmHg 28%
    14:00 +21°C° 0 mm 2 mps 708 mmHg 27%
    15:00 +23°C° 0 mm 2 mps 708 mmHg 26%
    16:00 +20°C° 0 mm 2 mps 708 mmHg 30%
    17:00 +19°C° 0 mm 1 mps 708 mmHg 33%
    18:00 +18°C° 0 mm 1 mps 708 mmHg 37%
    19:00 +16°C° 0 mm 1 mps 709 mmHg 39%
    20:00 +15°C° 0 mm 1 mps 709 mmHg 41%
    21:00 +14°C° 0 mm 1 mps 709 mmHg 43%
    22:00 +14°C° 0 mm 1 mps 709 mmHg 44%
    23:00 +14°C° 0 mm 1 mps 709 mmHg 45%

    Tomorrow, 24 September, Tuesday

    Time Temperature Precipitation Wind Pressure Humidity
    00:00 +13°C° 0 mm 1 mps 709 mmHg 47%
    01:00 +13°C° 0 mm 1 mps 709 mmHg 48%
    02:00 +12°C° 0 mm 1 mps 709 mmHg 49%
    03:00 +12°C° 0 mm 1 mps 709 mmHg 51%
    04:00 +12°C° 0 mm 1 mps 709 mmHg 52%
    05:00 +10°C° 0 mm 0 mps 709 mmHg 54%
    06:00 +10°C° 0 mm 0 mps 709 mmHg 55%
    07:00 +13°C° 0 mm 1 mps 709 mmHg 51%
    08:00 +15°C° 0 mm 1 mps 709 mmHg 46%
    09:00 +19°C° 0 mm 1 mps 709 mmHg 42%
    10:00 +20°C° 0 mm 1 mps 709 mmHg 40%
    11:00 +20°C° 0 mm 2 mps 709 mmHg 38%
    12:00 +21°C° 0 mm 2 mps 708 mmHg 36%
    13:00 +23°C° 0 mm 2 mps 708 mmHg 35%
    14:00 +24°C° 0 mm 2 mps 708 mmHg 35%
    15:00 +24°C° 0 mm 2 mps 708 mmHg 34%
    16:00 +23°C° 0 mm 2 mps 708 mmHg 39%
    17:00 +20°C° 0 mm 2 mps 707 mmHg 43%
    18:00 +19°C° 0 mm 1 mps 707 mmHg 48%
    19:00 +19°C° 0 mm 1 mps 707 mmHg 51%
    20:00 +18°C° 0 mm 1 mps 708 mmHg 55%
    21:00 +15°C° 0 mm 0 mps 708 mmHg 58%
    22:00 +16°C° 0 mm 1 mps 708 mmHg 59%
    23:00 +15°C° 0 mm 1 mps 707 mmHg 60%

    Day after tomorrow, 25 September, Wednesday

    Time Temperature Precipitation Wind Pressure Humidity
    00:00 +15°C° 0 mm 1 mps 707 mmHg 61%
    01:00 +15°C° 0 mm 1 mps 707 mmHg 62%
    02:00 +14°C° 0 mm 1 mps 707 mmHg 63%
    03:00 +14°C° 0 mm 1 mps 707 mmHg 64%
    04:00 +14°C° 0 mm 1 mps 707 mmHg 66%
    05:00 +13°C° 0 mm 1 mps 707 mmHg 67%
    06:00 +13°C° 0 mm 1 mps 707 mmHg 68%
    07:00 +15°C° 0 mm 1 mps 707 mmHg 62%
    08:00 +18°C° 0 mm 1 mps 707 mmHg 57%
    09:00 +20°C° 0 mm 1 mps 708 mmHg 51%
    10:00 +22°C° 0 mm 1 mps 707 mmHg 47%
    11:00 +23°C° 0 mm 1 mps 707 mmHg 43%
    12:00 +25°C° 0 mm 2 mps 707 mmHg 39%
    13:00 +25°C° 0 mm 2 mps 707 mmHg 37%
    14:00 +26°C° 0 mm 2 mps 707 mmHg 34%
    15:00 +27°C° 0 mm 2 mps 707 mmHg 32%
    16:00 +25°C° 0 mm 1 mps 707 mmHg 36%
    17:00 +23°C° 0 mm 1 mps 707 mmHg 40%
    18:00 +22°C° 0 mm 1 mps 707 mmHg 44%
    19:00 +21°C° 0 mm 1 mps 707 mmHg 46%
    20:00 +20°C° 0 mm 1 mps 707 mmHg 48%
    21:00 +20°C° 0 mm 1 mps 708 mmHg 50%
    22:00 +19°C° 0 mm 1 mps 708 mmHg 56%
    23:00 +18°C° 0 mm 2 mps 708 mmHg 62%

    26 September, Thursday

    Time Temperature Precipitation Wind Pressure Humidity
    00:00 +17°C° 0 mm 3 mps 708 mmHg 68%
    01:00 +17°C° 0 mm 2 mps 708 mmHg 72%
    02:00 +17°C° 0 mm 2 mps 708 mmHg 76%
    03:00 +16°C° 0 mm 2 mps 708 mmHg 81%
    04:00 +16°C° 0 mm 1 mps 708 mmHg 80%
    05:00 +18°C° 0 mm 1 mps 708 mmHg 79%
    06:00 +16°C° 0 mm 0 mps 708 mmHg 78%
    07:00 +16°C° 0 mm 0 mps 708 mmHg 77%
    08:00 +18°C° 0 mm 1 mps 708 mmHg 76%
    09:00 +19°C° 0 mm 1 mps 708 mmHg 76%
    10:00 +20°C° 0 mm 1 mps 708 mmHg 70%
    11:00 +22°C° 0 mm 1 mps 708 mmHg 64%
    12:00 +23°C° 0 mm 2 mps 708 mmHg 58%
    13:00 +24°C° 0 mm 1 mps 707 mmHg 54%
    14:00 +25°C° 0 mm 1 mps 707 mmHg 50%
    15:00 +25°C° 0 mm 1 mps 707 mmHg 45%
    16:00 +24°C° 0 mm 1 mps 707 mmHg 49%
    17:00 +23°C° 0 mm 1 mps 707 mmHg 54%
    18:00 +21°C° 0 mm 2 mps 707 mmHg 58%
    19:00 +21°C° 0 mm 1 mps 707 mmHg 61%
    20:00 +20°C° 0 mm 1 mps 707 mmHg 64%
    21:00 +19°C° 0 mm 1 mps 707 mmHg 67%
    22:00 +19°C° 0 mm 1 mps 707 mmHg 67%
    23:00 +19°C° 0 mm 1 mps 707 mmHg 67%

    27 September, Friday

    Time Temperature Precipitation Wind Pressure Humidity
    00:00 +19°C° 0 mm 1 mps 707 mmHg 68%
    01:00 +18°C° 0 mm 1 mps 707 mmHg 69%
    02:00 +18°C° 0 mm 1 mps 707 mmHg 71%
    03:00 +18°C° 0 mm 1 mps 707 mmHg 73%
    04:00 +15°C° 0 mm 0 mps 707 mmHg 76%
    05:00 +15°C° 0 mm 0 mps 707 mmHg 80%
    06:00 +14°C° 0 mm 0 mps 707 mmHg 83%
    07:00 +16°C° 0 mm 0 mps 707 mmHg 75%
    08:00 +20°C° 0 mm 1 mps 707 mmHg 67%
    09:00 +22°C° 0 mm 1 mps 707 mmHg 60%
    10:00 +23°C° 0 mm 1 mps 707 mmHg 54%
    11:00 +25°C° 0 mm 2 mps 707 mmHg 49%
    12:00 +26°C° 0 mm 2 mps 707 mmHg 43%
    13:00 +27°C° 0 mm 2 mps 707 mmHg 41%
    14:00 +28°C° 0 mm 2 mps 707 mmHg 38%
    15:00 +28°C° 0 mm 2 mps 706 mmHg 35%
    16:00 +27°C° 0 mm 2 mps 706 mmHg 40%
    17:00 +25°C° 0 mm 1 mps 706 mmHg 45%
    18:00 +23°C° 0 mm 1 mps 706 mmHg 50%
    19:00 +23°C° 0 mm 1 mps 706 mmHg 51%
    20:00 +23°C° 0 mm 1 mps 706 mmHg 52%
    21:00 +20°C° 0 mm 0 mps 707 mmHg 52%
    22:00 +22°C° 0 mm 1 mps 707 mmHg 53%
    23:00 +22°C° 0 mm 1 mps 707 mmHg 53%

    28 September, Saturday

    Time Temperature Precipitation Wind Pressure Humidity
    00:00 +21°C° 0 mm 2 mps 707 mmHg 54%
    01:00 +20°C° 0 mm 2 mps 706 mmHg 61%
    02:00 +18°C° 0 mm 2 mps 706 mmHg 69%
    03:00 +18°C° 0 mm 1 mps 706 mmHg 76%
    04:00 +18°C° 0 mm 1 mps 705 mmHg 78%
    05:00 +16°C° 0 mm 1 mps 705 mmHg 80%
    06:00 +16°C° 0 mm 1 mps 705 mmHg 81%
    07:00 +18°C° 0 mm 1 mps 705 mmHg 75%
    08:00 +19°C° 0 mm 2 mps 705 mmHg 69%
    09:00 +20°C° 0 mm 3 mps 705 mmHg 63%
    10:00 +20°C° 0.6 mm 4 mps 706 mmHg 63%
    11:00 +19°C° 0.6 mm 5 mps 706 mmHg 63%
    12:00 +19°C° 0.6 mm 6 mps 707 mmHg 62%
    13:00 +21°C° 0 mm 7 mps 707 mmHg 56%
    14:00 +22°C° 0 mm 8 mps 707 mmHg 49%
    15:00 +23°C° 0 mm 9 mps 707 mmHg 43%
    16:00 +22°C° 0 mm 8 mps 707 mmHg 49%
    17:00 +20°C° 0 mm 8 mps 707 mmHg 55%
    18:00 +17°C° 0 mm 7 mps 707 mmHg 61%
    19:00 +17°C° 0 mm 7 mps 707 mmHg 63%
    20:00 +16°C° 0 mm 7 mps 708 mmHg 65%
    21:00 +15°C° 0 mm 7 mps 708 mmHg 68%
    22:00 +15°C° 0 mm 6 mps 708 mmHg 69%
    23:00 +15°C° 0 mm 6 mps 708 mmHg 71%
    Show more